Location: Unspecified
(0.0000°N, 0.0000°E)
Time: 15:08:59
(UTC+00:00)

deb West Ford - Visible Passes

Search period start: 15 June 2025 00:00
Search period end: 25 June 2025 00:00
Orbit: 1964 x 5179 km, 86.5° (Epoch: 14 June)

Date Brightness Start Highest point End Pass type
(mag) Time Alt. Az. Time Alt. Az. Time Alt. Az.
15 Jun ? 01:03:48 10° N 01:11:30 36° N 01:11:30 36° N visible
15 Jun ? 23:07:41 10° NE 23:08:41 11° NE 23:08:41 11° NE visible
16 Jun ? 01:46:43 10° NNW 01:53:20 29° NNW 01:53:20 29° NNW visible
16 Jun ? 23:45:14 10° NNE 23:50:31 23° NE 23:50:31 23° NE visible
17 Jun ? 02:31:40 10° NW 02:35:10 16° NW 02:35:10 16° NW visible
18 Jun ? 00:25:42 10° N 00:32:21 32° NNE 00:32:21 32° NNE visible
19 Jun ? 01:07:48 10° N 01:14:13 31° NNW 01:14:13 31° NNW visible
19 Jun ? 23:08:50 10° NE 23:11:26 15° NE 23:11:26 15° NE visible
20 Jun ? 01:51:30 10° NNW 01:56:05 21° NW 01:56:05 21° NW visible
20 Jun ? 23:48:04 10° NNE 23:53:20 25° NNE 23:53:20 25° NNE visible
22 Jun ? 00:29:20 10° N 00:35:13 30° N 00:35:13 30° N visible
23 Jun ? 01:12:08 10° NNW 01:17:08 25° NNW 01:17:08 25° NNW visible
23 Jun ? 23:10:59 10° NNE 23:14:24 18° NE 23:14:24 18° NE visible
24 Jun ? 01:56:53 10° NW 01:59:04 14° NW 01:59:04 14° NW visible
